Regional Weather Roundup
Issued by NWS Midland/Odessa, TX

Home | Current Version | Previous Version | Text Only | Print | Product List | Glossary On
Versions: 1 2 3 4 5 6 7 8 9 10 11 12 13 14 15 16 17 18 19 20 21 22 23 24 25 26 27 28 29 30 31 32 33 34 35 36 37 38 39 40 41 42 43 44 45 46 47 48 49 50
000
ASUS44 KMAF 291710
RWRMAF
MIDLAND AREA WEATHER ROUNDUP
NATIONAL WEATHER SERVICE MIDLAND TX
1200 PM CDT SAT APR 29 2017

...IN SOUTHWEST TEXAS AND SOUTHEAST NEW MEXICO...

CITY           SKY/WX    TMP DP  RH WIND       PRES   REMARKS
ALPINE         CLOUDY    58  40  52 N15G23    29.91R
ANDREWS        CLOUDY    51  40  65 N18G25    29.84R
ARTESIA        DRIZZLE   41  41 100 E6        29.91S WCI  37
BIG SPRING     CLOUDY    53  43  69 N15       29.80S
CARLSBAD       RAIN      46  45  96 N9        29.92R
DRYDEN           N/A     70  45  40 N30G39    29.69R
FORT STOCKTON  CLOUDY    59  43  55 N16G26    29.84R
GUAD PASS      LGT RAIN  38  38 100 W25       29.91F VSB 1/4 WCI  27
HOBBS          RAIN      41  41 100 NW16G22   29.89R FOG     WCI  33
MARFA          CLOUDY    60  41  49 N17       29.86R
MIDLAND AIRPK  CLOUDY    56  44  63 N15G23    29.81R
MIDLAND INTL   CLOUDY    58  42  55 N17       29.80R
ODESSA         CLOUDY    56  41  57 N17G23    29.82R
PECOS          CLOUDY    58  38  49 NW17G24   29.86S
PRESIDIO       FAIR      71  40  32 W24G33    29.78R
SEMINOLE       CLOUDY    48  39  72 N18G24    29.87R
SNYDER         CLOUDY   N/A N/A N/A N18G26    29.76S
WINK           CLOUDY    56  42  59 N15       29.85R
$$
...OTHER STATIONS IN TEXAS...

CITY           SKY/WX    TMP DP  RH WIND       PRES   REMARKS
ABILENE        CLOUDY    52  49  89 NW20      29.72R
AMARILLO       CLOUDY    37  36  96 N33G43    29.82F WCI  24
AUSTIN         PTSUNNY   88  71  57 S22G33    29.57F
BROWNSVILLE    SUNNY     92  76  59 SE29G37   29.57F HX 104
CORPUS CHRISTI PTSUNNY   88  76  67 S36G46    29.55F
DALLAS FTW     PTSUNNY   87  69  54 S26G35    29.57R
DEL RIO        CLOUDY    83  69  62 CALM      29.60S
EL PASO        PTSUNNY   48  38  68 S15G23    29.87S
HOUSTON INT    CLOUDY    84  74  71 S24G35    29.68S HAZE
LUBBOCK        CLOUDY    45  37  73 N25G38    29.78F WCI  36
SAN ANGELO     PTSUNNY   69  49  48 N17G23    29.70R
SAN ANTONIO    MOSUNNY   85  71  63 S20G25    29.59S
WACO           PTSUNNY   85  72  65 S21G30    29.57F
WICHITA FALLS  NOT AVBL
$$
...OTHER LOCATIONS IN NEW MEXICO...

CITY           SKY/WX    TMP DP  RH WIND       PRES   REMARKS
ALAMOGORDO     MOSUNNY   48  39  71 S14       29.88R
ALBUQUERQUE    LGT SNOW  35  32  88 N7        29.96R VSB 1   WCI  29
CANNON AFB     LGT RAIN  34  34 100 NE26G36   29.85F WCI  21
CLOVIS         CLOUDY    36  30  80 N31       29.87F WCI  22
HOLLOMAN AFB   DRIZZLE   48  39  71 SE12      29.91R
ROSWELL        LGT RAIN  42  36  79 E13       29.90F WCI  35
RUIDOSO        SNOW      28  28 100 E8        29.87R VSB 1/2 WCI  20
SANTA FE       LGT SNOW  32  32 100 CALM      29.93R VSB 3/4
TRUTH OR CONSE MOSUNNY   53  23  31 N13G22    29.88R
TUCUMCARI      LGT SNOW  35  33  92 NE20G26   29.91R FOG     WCI  24
$$




USA.gov is the U.S. government's official web portal to all federal, state and local government web resources and services.